Location: Franzen
(48.6167°N, 15.3833°E)
Time: 03:00:19
(UTC+00:00)

Transit 2A - Pass Details

Date: 04 August 2021
Orbit: 594 x 964 km, 66.7° (Epoch: 27 September)

Event Time Altitude Azimuth Distance (km) Brightness Sun altitude
Rises 10:29:05 0° 326° (NW) 3,127 8.9 57.7°
Reaches altitude 10° 10:32:13 10° 347° (NNW) 2,279 8.3 57.8°
Maximum altitude 10:35:35 17° 27° (NNE) 1,919 8.0 57.9°
Drops below altitude 10° 10:39:09 10° 67° (ENE) 2,439 8.7 58.1°
Sets 10:42:39 0° 87° (E) 3,449 9.4 58.2°
